Flag for Germany Weather past 2 weeks in Rottenburg am Neckar, Baden-Württemberg, Germany

Now
66 °F

Passing clouds.


Feels Like: 66 °F
Forecast: 50 / 75 °F
Wind: 2 mph from Northeast

Location: Stuttgart-Echterdingen

Current Time: Aug 27, 2014 at 7:11:58 PM

Latest Report: Aug 27, 2014 at 6:00 PM


Visibility: 44 mi

Pressure: 30.01 "Hg

Humidity: 62%

Dew point: 53 °F

Location of Rottenburg am NeckarLocation

Historic Weather in Rottenburg am Neckar — Graph

°F

Rottenburg am Neckar temperature yesterday

Maximum temperature yesterday: 67 °F (at 2:00 PM)
Minimum temperature yesterday: 54 °F (at 4:00 AM)
Average temperature yesterday: 60 °F

Past Weeks' High & Low Weather Summary

 TemperatureHumidityPressure
High71 °F (Aug 12, 6:00 PM)98% (Aug 26, 4:00 AM)30.18 "Hg (Aug 26, 4:00 AM)
Low45 °F (Aug 25, 6:00 AM)43% (Aug 22, 1:00 PM)29.67 "Hg (Aug 13, 5:00 PM)
Average58 °F76%29.97 "Hg
* Reported Aug 12 6:00 PM — Aug 27 5:00 PM, Rottenburg am Neckar, Weather by CustomWeather, © 2014

Note: Actual official high and low records may vary slightly from our data, if they occured in-between our weather recording intervals... More about our weather records

Advertising

Rottenburg am Neckar weather history for previous 24 hours

 ConditionsComfort  
Time TempWeatherWind HumidityBarometerVisibility
5:00 PM
Aug 27
66 °FScattered clouds.1 mph59%30.01 "Hg43 mi
4:00 PM65 °FPartly sunny.1 mph65%30.02 "Hg43 mi
3:00 PM63 °FOvercast.2 mph71%30.02 "Hg43 mi
2:00 PM61 °FOvercast.2 mph78%30.02 "Hg43 mi
1:00 PM60 °FOvercast.2 mph83%30.01 "Hg40 mi
12:00 PM59 °FOvercast.2 mph87%30.01 "Hg37 mi
11:00 AM58 °FLow clouds.2 mph87%29.98 "Hg25 mi
9:00 AM59 °FLow clouds.2 mph94%29.93 "Hg11 mi
8:00 AM58 °FOvercast.2 mph94%29.90 "Hg22 mi
7:00 AM58 °FSprinkles. Overcast.3 mph93%29.88 "Hg19 mi
6:00 AM58 °FOvercast.2 mph92%29.86 "Hg25 mi
5:00 AM58 °FOvercast.2 mph92%29.84 "Hg19 mi
4:00 AM58 °FOvercast.3 mph92%29.82 "Hg19 mi
3:00 AM58 °FPassing clouds.3 mph94%29.82 "Hg19 mi
2:00 AM59 °FSprinkles. Overcast.1 mph96%29.81 "Hg11 mi
1:00 AM59 °FOvercast.1 mph96%29.80 "Hg9 mi
12:00 AM59 °FSprinkles. Low clouds.3 mph95%29.80 "Hg6 mi
10:00 PM
Aug 26
59 °FLow clouds.1 mph97%29.77 "Hg7 mi
9:00 PM60 °FRain showers. Low clouds.1 mph96%29.77 "Hg5 mi
8:00 PM60 °FRain showers. Low clouds.2 mph97%29.72 "Hg3 mi
7:00 PM61 °FSprinkles. Overcast.2 mph97%29.71 "Hg4 mi
Weather by CustomWeather, © 2014

See weather overviewHow to use our weather pages